Home > Weather > Downey > Past weeks

Flag for USA Past Weather in Downey, California, USA — Yesterday and Last 2 Weeks

Now
69 °F

Clear.


Feels Like: 69 °F
Forecast: 67 / 95 °F
Wind: 3 mph from East

Location: Long Beach Airport

Current Time: Jul 23, 2016 at 6:15:33 AM

Latest Report: Jul 23, 2016 at 4:53 AM


Visibility: 7 mi

Pressure: 29.80 "Hg

Humidity: 90%

Dew Point: 66 °F

Location of DowneyLocation

Past Weather in Downey — Graph

°F

Downey Temperature Yesterday

Maximum temperature yesterday: 98 °F (at 2:53 PM)
Minimum temperature yesterday: 67 °F (at 4:53 AM)
Average temperature yesterday: 81 °F

High & Low Weather Summary for the Past Weeks

 TemperatureHumidityPressure
High98 °F (Jul 22, 2:53 PM)90% (Jul 14, 5:53 AM)30.03 "Hg (Jul 14, 5:53 AM)
Low64 °F (Jul 15, 2:53 AM)19% (Jul 22, 2:53 PM)29.80 "Hg (Jul 23, 3:53 AM)
Average73 °F67%29.93 "Hg
* Reported Jul 8 4:53 AM — Jul 23 4:53 AM, Downey, Weather by CustomWeather, © 2016

Note: Actual official high and low records may vary slightly from our data, if they occured in-between our weather recording intervals... More about our weather records

Advertising

Downey Weather History for the Previous 24 Hours

Scroll right to see more
 ConditionsComfort  
Time TempWeatherWind HumidityBarometerVisibility
4:53 AM
Sat, Jul 23
69 °FClear.3 mph90%29.80 "Hg7 mi
3:53 AM70 °FClear.5 mph87%29.80 "Hg8 mi
2:53 AM70 °FClear.5 mph87%29.80 "Hg9 mi
1:53 AM71 °FClear.5 mph76%29.80 "Hg10 mi
12:53 AM71 °FClear.6 mph78%29.81 "Hg10 mi
11:53 PM
Fri, Jul 22
75 °FClear.5 mph69%29.82 "Hg10 mi
10:53 PM77 °FClear.3 mph52%29.82 "Hg10 mi
9:53 PM79 °FClear.No wind44%29.82 "Hg10 mi
8:53 PM81 °FSunny.8 mph39%29.81 "Hg10 mi
7:53 PM84 °FSunny.9 mph37%29.81 "Hg10 mi
6:53 PM87 °FSunny.15 mph30%29.81 "Hg10 mi
5:53 PM91 °FSunny.12 mph25%29.81 "Hg10 mi
4:53 PM93 °FSunny.12 mph23%29.82 "Hg10 mi
3:53 PM94 °FSunny.16 mph23%29.83 "Hg10 mi
2:53 PM98 °FSunny.13 mph19%29.85 "Hg10 mi
1:53 PM97 °FSunny.6 mph26%29.87 "Hg10 mi
12:53 PM93 °FSunny.8 mph33%29.90 "Hg10 mi
11:53 AM86 °FSunny.8 mph43%29.93 "Hg10 mi
10:53 AM88 °FSunny.6 mph36%29.93 "Hg10 mi
9:53 AM83 °FSunny.No wind48%29.94 "Hg10 mi
8:53 AM77 °FSunny.5 mph62%29.95 "Hg10 mi
7:53 AM72 °FSunny.3 mph78%29.94 "Hg10 mi
6:53 AM69 °FClear.5 mph87%29.93 "Hg8 mi
Weather by CustomWeather, © 2016

See weather overviewHow to use our weather pages